Location: Smyrna_Hopewell
(35.6500°N, 81.0330°W)
Time: 20:19:29
(UTC-04:00)

Cosmos 2221 - Visible Passes

Search period start: 24 July 2016 00:00
Search period end: 03 August 2016 00:00
Orbit: 594 x 618 km, 82.5° (Epoch: 23 July)

Date Brightness Start Highest point End Pass type
(mag) Time Alt. Az. Time Alt. Az. Time Alt. Az.
25 Jul 5.4 04:51:08 10° ESE 04:53:02 13° E 04:54:55 10° ENE visible
26 Jul 4.9 05:02:44 10° SE 05:06:03 22° E 05:09:23 10° NE visible
27 Jul 3.9 05:15:09 10° SSE 05:19:07 39° E 05:23:07 10° NNE visible
28 Jul 2.7 05:28:01 10° S 05:32:16 73° E 05:36:33 10° N visible
29 Jul 2.5 05:41:16 10° SSW 05:45:28 61° W 05:49:44 10° N visible
30 Jul 5.2 04:18:58 10° ESE 04:21:31 16° E 04:24:03 10° NE visible
30 Jul 3.3 05:54:53 10° SW 05:58:45 33° WNW 06:02:40 10° NNW visible
31 Jul 4.4 04:30:57 10° SSE 04:34:32 27° E 04:38:10 10° NNE visible
01 Aug 3.3 04:44:35 17° SSE 04:47:38 48° E 04:51:47 10° NNE visible
02 Aug 2.4 04:58:17 24° S 05:00:48 89° E 05:05:07 10° N visible
